Location: A�t �Alizem
(31.2076°N, 8.7872°W)
Time: 15:25:28
(UTC+00:00)

MOS 1 Rocket - Pass Details

Date: 27 November 2020
Orbit: 613 x 831 km, 97.4° (Epoch: 25 January)

Event Time Altitude Azimuth Distance (km) Brightness Sun altitude
Exits shadow 18:53:08 - 18° (NNE) 2,742 6.1 -17.0°
Reaches altitude 10° 18:53:55 10° 19° (NNE) 2,441 5.8 -17.2°
Maximum altitude 18:59:19 62° 100° (E) 923 3.6 -18.3°
Drops below altitude 10° 19:04:34 10° 181° (S) 2,380 6.2 -19.4°
Sets 19:06:54 0° 184° (S) 3,285 7.0 -19.9°
